Location: Newark
(49.1000°N, 0.4667°W)
Time: 10:21:22
(UTC+00:00)

BEESAT 3 - Pass Details

Date: 08 July 2020
Orbit: 482 x 522 km, 64.9° (Epoch: 10 August)

Event Time Altitude Azimuth Distance (km) Brightness Sun altitude
Rises 22:49:18 0° 273° (W) 2,650 ? -16.5°
Reaches altitude 10° 22:52:17 10° 297° (WNW) 1,766 ? -16.6°
Maximum altitude 22:54:37 15° 334° (NNW) 1,478 ? -16.8°
Drops below altitude 10° 22:56:57 10° 10° (N) 1,769 ? -16.9°
Sets 22:59:57 0° 34° (NE) 2,657 ? -17.0°
